• In Uzbekistan
  • List of Countries
  • For 7 days
  • Water Temperature
  • Satellite Maps
  • Weather Map
  • Weather Widgets
  • user-avatar
    Login

    Hourly Weather Krywe

    Today, 21 September, Friday

    Time Temperature Precipitation Wind Pressure Humidity
    00:00 +15°C° 0 mm 1 mps 722 mmHg 78%
    01:00 +15°C° 0 mm 1 mps 722 mmHg 79%
    02:00 +15°C° 0 mm 1 mps 722 mmHg 80%
    03:00 +15°C° 0 mm 1 mps 722 mmHg 80%
    04:00 +14°C° 0 mm 1 mps 722 mmHg 81%
    05:00 +14°C° 0 mm 1 mps 722 mmHg 82%
    06:00 +15°C° 0 mm 1 mps 722 mmHg 79%
    07:00 +16°C° 0 mm 1 mps 722 mmHg 76%
    08:00 +18°C° 0 mm 1 mps 722 mmHg 70%
    09:00 +20°C° 0 mm 1 mps 722 mmHg 62%
    10:00 +21°C° 0 mm 2 mps 722 mmHg 54%
    11:00 +24°C° 0 mm 2 mps 722 mmHg 46%
    12:00 +25°C° 0 mm 2 mps 722 mmHg 45%
    13:00 +25°C° 0 mm 3 mps 722 mmHg 43%
    14:00 +26°C° 0 mm 3 mps 721 mmHg 43%
    15:00 +25°C° 0 mm 3 mps 721 mmHg 47%
    16:00 +25°C° 0 mm 3 mps 720 mmHg 51%
    17:00 +24°C° 0 mm 2 mps 720 mmHg 56%
    18:00 +21°C° 0 mm 2 mps 720 mmHg 61%
    19:00 +19°C° 0 mm 2 mps 719 mmHg 67%
    20:00 +17°C° 0 mm 2 mps 719 mmHg 72%
    21:00 +17°C° 0 mm 2 mps 719 mmHg 72%
    22:00 +17°C° 0 mm 2 mps 719 mmHg 73%
    23:00 +16°C° 0 mm 3 mps 719 mmHg 73%

    Tomorrow, 22 September, Saturday

    Time Temperature Precipitation Wind Pressure Humidity
    00:00 +16°C° 0 mm 3 mps 719 mmHg 71%
    01:00 +16°C° 0 mm 3 mps 719 mmHg 70%
    02:00 +16°C° 0 mm 3 mps 719 mmHg 68%
    03:00 +16°C° 0 mm 3 mps 719 mmHg 66%
    04:00 +16°C° 0 mm 3 mps 719 mmHg 64%
    05:00 +16°C° 0 mm 3 mps 719 mmHg 62%
    06:00 +16°C° 0.2 mm 3 mps 719 mmHg 68%
    07:00 +16°C° 0.2 mm 3 mps 720 mmHg 73%
    08:00 +14°C° 0.2 mm 3 mps 720 mmHg 79%
    09:00 +14°C° 0.4 mm 3 mps 721 mmHg 82%
    10:00 +14°C° 0.4 mm 2 mps 721 mmHg 85%
    11:00 +14°C° 0.4 mm 2 mps 722 mmHg 88%
    12:00 +13°C° 0.9 mm 2 mps 722 mmHg 89%
    13:00 +13°C° 0.9 mm 2 mps 722 mmHg 90%
    14:00 +12°C° 0.9 mm 1 mps 722 mmHg 90%
    15:00 +12°C° 0.7 mm 1 mps 722 mmHg 90%
    16:00 +12°C° 0.7 mm 1 mps 722 mmHg 90%
    17:00 +12°C° 0.7 mm 1 mps 722 mmHg 90%
    18:00 +11°C° 0 mm 1 mps 722 mmHg 92%
    19:00 +10°C° 0 mm 1 mps 722 mmHg 93%
    20:00 +9°C° 0 mm 1 mps 722 mmHg 94%
    21:00 +9°C° 0 mm 1 mps 723 mmHg 93%
    22:00 +9°C° 0 mm 1 mps 723 mmHg 91%
    23:00 +9°C° 0 mm 1 mps 723 mmHg 90%

    Day after tomorrow, 23 September, Sunday

    Time Temperature Precipitation Wind Pressure Humidity
    00:00 +9°C° 0 mm 1 mps 723 mmHg 89%
    01:00 +9°C° 0 mm 1 mps 723 mmHg 89%
    02:00 +9°C° 0 mm 1 mps 723 mmHg 89%
    03:00 +8°C° 0 mm 1 mps 723 mmHg 90%
    04:00 +8°C° 0 mm 1 mps 722 mmHg 90%
    05:00 +7°C° 0 mm 2 mps 722 mmHg 91%
    06:00 +8°C° 0 mm 2 mps 722 mmHg 90%
    07:00 +8°C° 0 mm 2 mps 722 mmHg 89%
    08:00 +9°C° 0 mm 2 mps 722 mmHg 88%
    09:00 +10°C° 0 mm 3 mps 722 mmHg 83%
    10:00 +11°C° 0 mm 3 mps 722 mmHg 78%
    11:00 +12°C° 0 mm 3 mps 722 mmHg 74%
    12:00 +13°C° 0 mm 4 mps 722 mmHg 71%
    13:00 +13°C° 0 mm 4 mps 722 mmHg 69%
    14:00 +14°C° 0 mm 4 mps 722 mmHg 67%
    15:00 +14°C° 0 mm 4 mps 721 mmHg 67%
    16:00 +14°C° 0 mm 3 mps 721 mmHg 68%
    17:00 +14°C° 0 mm 3 mps 721 mmHg 69%
    18:00 +13°C° 0 mm 3 mps 720 mmHg 72%
    19:00 +12°C° 0 mm 4 mps 720 mmHg 76%
    20:00 +11°C° 0 mm 4 mps 720 mmHg 79%
    21:00 +11°C° 0 mm 4 mps 719 mmHg 75%
    22:00 +10°C° 0 mm 5 mps 718 mmHg 71%
    23:00 +12°C° 0 mm 5 mps 717 mmHg 66%

    24 September, Monday

    Time Temperature Precipitation Wind Pressure Humidity
    00:00 +11°C° 0.2 mm 6 mps 716 mmHg 68%
    01:00 +11°C° 0.2 mm 7 mps 714 mmHg 71%
    02:00 +11°C° 0.2 mm 7 mps 713 mmHg 73%
    03:00 +11°C° 0.4 mm 8 mps 712 mmHg 74%
    04:00 +12°C° 0.4 mm 8 mps 711 mmHg 76%
    05:00 +12°C° 0.4 mm 9 mps 710 mmHg 77%
    06:00 +12°C° 1.2 mm 8 mps 710 mmHg 80%
    07:00 +11°C° 1.2 mm 8 mps 711 mmHg 84%
    08:00 +11°C° 1.2 mm 8 mps 711 mmHg 87%
    09:00 +10°C° 0.4 mm 7 mps 713 mmHg 86%
    10:00 +9°C° 0.4 mm 7 mps 715 mmHg 85%
    11:00 +7°C° 0.4 mm 6 mps 717 mmHg 83%
    12:00 +8°C° 0.2 mm 7 mps 717 mmHg 81%
    13:00 +8°C° 0.2 mm 7 mps 718 mmHg 79%
    14:00 +8°C° 0.2 mm 7 mps 719 mmHg 76%
    15:00 +9°C° 0.1 mm 7 mps 720 mmHg 72%
    16:00 +9°C° 0.1 mm 6 mps 720 mmHg 68%
    17:00 +9°C° 0.1 mm 6 mps 721 mmHg 64%
    18:00 +7°C° 0 mm 5 mps 721 mmHg 66%
    19:00 +6°C° 0 mm 5 mps 722 mmHg 69%
    20:00 +5°C° 0 mm 5 mps 722 mmHg 71%
    21:00 +5°C° 0 mm 4 mps 723 mmHg 72%
    22:00 +4°C° 0 mm 4 mps 723 mmHg 73%
    23:00 +4°C° 0 mm 4 mps 724 mmHg 74%

    25 September, Tuesday

    Time Temperature Precipitation Wind Pressure Humidity
    00:00 +4°C° 0 mm 4 mps 724 mmHg 76%
    01:00 +4°C° 0 mm 4 mps 725 mmHg 77%
    02:00 +4°C° 0 mm 4 mps 725 mmHg 78%
    03:00 +3°C° 0 mm 3 mps 725 mmHg 81%
    04:00 +3°C° 0 mm 3 mps 726 mmHg 83%
    05:00 +2°C° 0 mm 3 mps 726 mmHg 85%
    06:00 +3°C° 0 mm 3 mps 726 mmHg 82%
    07:00 +3°C° 0 mm 4 mps 727 mmHg 79%
    08:00 +4°C° 0 mm 4 mps 727 mmHg 76%
    09:00 +5°C° 0 mm 4 mps 728 mmHg 69%
    10:00 +7°C° 0 mm 5 mps 728 mmHg 63%
    11:00 +8°C° 0 mm 5 mps 729 mmHg 57%
    12:00 +9°C° 0.1 mm 5 mps 729 mmHg 54%
    13:00 +9°C° 0.1 mm 5 mps 729 mmHg 52%
    14:00 +9°C° 0.1 mm 5 mps 729 mmHg 50%
    15:00 +9°C° 0 mm 5 mps 728 mmHg 50%
    16:00 +10°C° 0 mm 4 mps 728 mmHg 50%
    17:00 +8°C° 0 mm 4 mps 728 mmHg 51%
    18:00 +8°C° 0 mm 3 mps 728 mmHg 56%
    19:00 +6°C° 0 mm 2 mps 728 mmHg 62%
    20:00 +4°C° 0 mm 2 mps 728 mmHg 68%
    21:00 +5°C° 0 mm 2 mps 728 mmHg 67%
    22:00 +5°C° 0 mm 2 mps 728 mmHg 66%
    23:00 +6°C° 0 mm 2 mps 727 mmHg 65%

    26 September, Wednesday

    Time Temperature Precipitation Wind Pressure Humidity
    00:00 +4°C° 0 mm 3 mps 727 mmHg 66%
    01:00 +4°C° 0 mm 3 mps 726 mmHg 68%
    02:00 +4°C° 0 mm 3 mps 726 mmHg 69%
    03:00 +4°C° 0.7 mm 3 mps 725 mmHg 74%
    04:00 +4°C° 0.7 mm 3 mps 725 mmHg 78%
    05:00 +3°C° 0.7 mm 3 mps 725 mmHg 83%
    06:00 +4°C° 0.6 mm 3 mps 725 mmHg 85%
    07:00 +4°C° 0.6 mm 3 mps 725 mmHg 87%
    08:00 +4°C° 0.6 mm 3 mps 726 mmHg 89%
    09:00 +5°C° 0.1 mm 4 mps 726 mmHg 81%
    10:00 +7°C° 0.1 mm 4 mps 727 mmHg 73%
    11:00 +8°C° 0.1 mm 5 mps 727 mmHg 66%
    12:00 +9°C° 0.1 mm 5 mps 727 mmHg 62%
    13:00 +9°C° 0.1 mm 5 mps 727 mmHg 59%
    14:00 +10°C° 0.1 mm 5 mps 727 mmHg 56%
    15:00 +10°C° 0.1 mm 5 mps 728 mmHg 59%
    16:00 +10°C° 0.1 mm 4 mps 728 mmHg 63%
    17:00 +10°C° 0.1 mm 4 mps 728 mmHg 66%
    18:00 +9°C° 0 mm 3 mps 728 mmHg 72%
    19:00 +7°C° 0 mm 2 mps 729 mmHg 77%
    20:00 +7°C° 0 mm 1 mps 729 mmHg 83%
    21:00 +6°C° 0 mm 1 mps 729 mmHg 84%
    22:00 +6°C° 0 mm 1 mps 729 mmHg 85%
    23:00 +6°C° 0 mm 1 mps 730 mmHg 87%
    Show more